| time (UTC) | temp F | wind direction | speed knots | gust knots | rain 1hr in | rain 24hr in | rain mn in | humidity % | barometer mb |
| 20260831230517 | 86 | 225 | 1.7 | 5.2 | 0.00 | 0.17 | 0.00 | 77 | 1012.9 |
| 20260831225517 | 86 | 225 | 0.9 | 7.8 | 0.00 | 0.17 | 0.00 | 78 | 1012.7 |
| 20260831224537 | 84 | 225 | 1.7 | 4.3 | 0.00 | 0.17 | 0.00 | 81 | 1012.6 |
| 20260831223517 | 85 | 225 | 0.9 | 4.3 | 0.00 | 0.17 | 0.00 | 79 | 1012.6 |
| 20260831222537 | 86 | 225 | 0.9 | 3.5 | 0.00 | 0.17 | 0.00 | 78 | 1012.9 |
| 20260831221516 | 85 | 203 | 0.9 | 2.6 | 0.00 | 0.17 | 0.00 | 80 | 1012.7 |
| 20260831220517 | 85 | 225 | 2.6 | 6.1 | 0.00 | 0.17 | 0.00 | 78 | 1012.9 |
| 20260831215516 | 87 | 225 | 2.6 | 5.2 | 0.00 | 0.17 | 0.00 | 76 | 1012.7 |
| 20260831215016 | 87 | 248 | 1.7 | 3.5 | 0.00 | 0.17 | 0.00 | 76 | 1012.6 |
| 20260831214016 | 87 | 158 | 2.6 | 7.0 | 0.00 | 0.17 | 0.00 | 76 | 1012.4 |
| 20260831213017 | 86 | 203 | 3.5 | 9.6 | 0.00 | 0.17 | 0.00 | 77 | 1012.2 |
| 20260831212036 | 86 | 158 | 4.3 | 7.8 | 0.00 | 0.17 | 0.00 | 79 | 1012.2 |
| 20260831211037 | 85 | 158 | 3.5 | 7.8 | 0.00 | 0.17 | 0.00 | 84 | 1012.0 |
| 20260831210018 | 83 | 180 | 2.6 | 5.2 | 0.00 | 0.17 | 0.00 | 83 | 1011.9 |
| 20260831205018 | 83 | 158 | 0.9 | 4.3 | 0.00 | 0.17 | 0.00 | 82 | 1011.4 |
| 20260831204016 | 84 | 180 | 1.7 | 5.2 | 0.00 | 0.17 | 0.00 | 80 | 1011.7 |
| 20260831203118 | 84 | 180 | 0.9 | 3.5 | 0.00 | 0.17 | 0.00 | 80 | 1011.8 |
| 20260831202017 | 84 | 158 | 1.7 | 4.3 | 0.00 | 0.17 | 0.00 | 81 | 1011.8 |
| 20260831201037 | 84 | 158 | 0.9 | 4.3 | 0.00 | 0.17 | 0.00 | 80 | 1011.9 |
| 20260831200016 | 84 | 248 | 3.5 | 8.7 | 0.00 | 0.17 | 0.00 | 76 | 1012.8 |
| 20260831195018 | 86 | 248 | 1.7 | 7.0 | 0.00 | 0.17 | 0.00 | 75 | 1012.8 |
| 20260831194016 | 88 | 225 | 1.7 | 6.1 | 0.00 | 0.17 | 0.00 | 71 | 1012.8 |
| 20260831193018 | 87 | 203 | 1.7 | 6.1 | 0.00 | 0.17 | 0.00 | 74 | 1012.6 |
| 20260831192016 | 87 | 225 | 0.9 | 4.3 | 0.00 | 0.17 | 0.00 | 74 | 1012.6 |
| 20260831191017 | 87 | 180 | 0.9 | 3.5 | 0.00 | 0.17 | 0.00 | 72 | 1012.5 |
| 20260831190016 | 87 | 180 | 0.9 | 3.5 | 0.00 | 0.17 | 0.00 | 73 | 1012.5 |
| 20260831185018 | 87 | 203 | 0.9 | 3.5 | 0.00 | 0.17 | 0.00 | 73 | 1012.6 |
| 20260831184016 | 88 | 203 | 0.9 | 4.3 | 0.00 | 0.17 | 0.00 | 72 | 1012.6 |
| 20260831183016 | 87 | 180 | 0.9 | 5.2 | 0.00 | 0.17 | 0.00 | 72 | 1012.7 |
| 20260831182016 | 87 | 180 | 2.6 | 4.3 | 0.00 | 0.17 | 0.00 | 74 | 1012.8 |
| 20260831181016 | 86 | 225 | 1.7 | 6.1 | 0.00 | 0.17 | 0.00 | 74 | 1012.9 |
| 20260831180016 | 86 | 248 | 2.6 | 6.1 | 0.00 | 0.17 | 0.00 | 71 | 1012.7 |
| 20260831175016 | 87 | 203 | 0.9 | 2.6 | 0.00 | 0.17 | 0.00 | 72 | 1013.0 |
| 20260831174016 | 85 | 158 | 2.6 | 5.2 | 0.00 | 0.17 | 0.00 | 75 | 1013.1 |
| 20260831173037 | 84 | 225 | 1.7 | 4.3 | 0.00 | 0.17 | 0.00 | 75 | 1013.0 |
| 20260831172016 | 84 | 203 | 1.7 | 4.3 | 0.00 | 0.17 | 0.00 | 75 | 1013.1 |
| 20260831171136 | 84 | 225 | 3.5 | 7.8 | 0.00 | 0.17 | 0.00 | 75 | 1013.3 |
| 20260831170018 | 84 | 180 | 1.7 | 5.2 | 0.00 | 0.17 | 0.00 | 76 | 1013.3 |
| 20260831165016 | 83 | 225 | 1.7 | 4.3 | 0.00 | 0.17 | 0.00 | 77 | 1013.3 |
| 20260831164016 | 83 | 203 | 1.7 | 5.2 | 0.00 | 0.17 | 0.00 | 76 | 1013.2 |
| 20260831163016 | 82 | 225 | 1.7 | 4.3 | 0.00 | 0.17 | 0.00 | 78 | 1013.1 |
| 20260831162016 | 82 | 248 | 2.6 | 6.1 | 0.00 | 0.17 | 0.00 | 78 | 1012.9 |
| 20260831161016 | 81 | 225 | 2.6 | 7.0 | 0.00 | 0.17 | 0.00 | 79 | 1012.9 |
| 20260831160038 | 82 | 270 | 2.6 | 7.0 | 0.00 | 0.17 | 0.00 | 77 | 1012.8 |
| 20260831155136 | 81 | 225 | 2.6 | 4.3 | 0.00 | 0.17 | 0.00 | 77 | 1012.7 |
| 20260831154016 | 81 | 225 | 1.7 | 4.3 | 0.00 | 0.17 | 0.00 | 80 | 1012.4 |
| 20260831153016 | 80 | 225 | 3.5 | 7.8 | 0.00 | 0.17 | 0.00 | 79 | 1012.2 |
| 20260831152016 | 80 | 225 | 2.6 | 7.8 | 0.00 | 0.17 | 0.00 | 80 | 1012.3 |
| 20260831151016 | 79 | 248 | 4.3 | 8.7 | 0.00 | 0.17 | 0.00 | 80 | 1012.0 |
| 20260831150016 | 78 | 225 | 2.6 | 8.7 | 0.00 | 0.17 | 0.00 | 81 | 1011.9 |
| 20260831145016 | 78 | 248 | 2.6 | 5.2 | 0.00 | 0.17 | 0.00 | 83 | 1011.9 |
| 20260831144016 | 77 | 248 | 3.5 | 7.8 | 0.00 | 0.17 | 0.00 | 84 | 1011.9 |
| 20260831143036 | 76 | 225 | 4.3 | 9.6 | 0.00 | 0.17 | 0.00 | 84 | 1011.8 |
| 20260831142016 | 75 | 225 | 2.6 | 7.0 | 0.00 | 0.17 | 0.00 | 86 | 1011.8 |
| 20260831141016 | 75 | 225 | 0.9 | 4.3 | 0.00 | 0.17 | 0.00 | 85 | 1011.6 |
| 20260831140016 | 75 | 225 | 2.6 | 5.2 | 0.00 | 0.17 | 0.00 | 85 | 1011.5 |
| 20260831135016 | 75 | 225 | 0.9 | 3.5 | 0.00 | 0.17 | 0.00 | 87 | 1011.6 |
| 20260831134016 | 74 | 225 | 1.7 | 5.2 | 0.00 | 0.17 | 0.00 | 86 | 1011.6 |
| 20260831133016 | 73 | 225 | 0.9 | 4.3 | 0.00 | 0.17 | 0.00 | 88 | 1011.4 |
| 20260831132016 | 73 | 225 | 1.7 | 4.3 | 0.00 | 0.17 | 0.00 | 87 | 1011.5 |
| 20260831131016 | 74 | 225 | 1.7 | 5.2 | 0.00 | 0.17 | 0.00 | 87 | 1011.4 |
| 20260831130036 | 74 | 203 | 1.7 | 5.2 | 0.00 | 0.17 | 0.00 | 87 | 1011.3 |
| 20260831125116 | 73 | 0.0 | 2.6 | 0.00 | 0.17 | 0.00 | 89 | 1011.3 | |
| 20260831124016 | 73 | 0.0 | 0.0 | 0.00 | 0.17 | 0.00 | 89 | 1011.5 | |
| 20260831123016 | 72 | 0.0 | 0.0 | 0.00 | 0.17 | 0.00 | 89 | 1011.2 | |
| 20260831122016 | 72 | 135 | 0.9 | 2.6 | 0.00 | 0.17 | 0.00 | 90 | 1011.1 |
| 20260831121016 | 71 | 0.0 | 1.7 | 0.00 | 0.17 | 0.00 | 91 | 1011.0 | |
| 20260831120017 | 70 | 158 | 0.9 | 2.6 | 0.00 | 0.17 | 0.00 | 92 | 1010.9 |
| 20260831115016 | 70 | 180 | 0.9 | 1.7 | 0.00 | 0.17 | 0.00 | 92 | 1010.9 |
| 20260831114016 | 70 | 180 | 0.9 | 3.5 | 0.00 | 0.17 | 0.00 | 92 | 1010.6 |
| 20260831113036 | 70 | 203 | 0.9 | 2.6 | 0.00 | 0.17 | 0.00 | 92 | 1010.8 |
| 20260831112016 | 70 | 203 | 0.9 | 4.3 | 0.00 | 0.17 | 0.00 | 92 | 1011.0 |
| 20260831111017 | 70 | 180 | 0.9 | 3.5 | 0.00 | 0.17 | 0.00 | 92 | 1011.0 |
| 20260831110016 | 70 | 180 | 0.9 | 3.5 | 0.00 | 0.17 | 0.00 | 92 | 1011.0 |
| 20260831105016 | 70 | 180 | 1.7 | 4.3 | 0.00 | 0.17 | 0.00 | 92 | 1010.9 |
| 20260831104037 | 70 | 180 | 0.9 | 3.5 | 0.00 | 0.17 | 0.00 | 92 | 1011.0 |
| 20260831103016 | 70 | 180 | 0.9 | 4.3 | 0.00 | 0.17 | 0.00 | 92 | 1011.0 |
| 20260831102037 | 70 | 180 | 1.7 | 3.5 | 0.00 | 0.17 | 0.00 | 92 | 1011.0 |
| 20260831101016 | 70 | 180 | 1.7 | 4.3 | 0.00 | 0.17 | 0.00 | 92 | 1011.0 |
| 20260831100036 | 70 | 180 | 1.7 | 4.3 | 0.00 | 0.17 | 0.00 | 92 | 1011.1 |
| 20260831095036 | 70 | 180 | 0.9 | 4.3 | 0.00 | 0.17 | 0.00 | 92 | 1011.2 |
| 20260831094015 | 70 | 180 | 0.9 | 3.5 | 0.00 | 0.17 | 0.00 | 93 | 1011.3 |
| 20260831093016 | 70 | 180 | 1.7 | 3.5 | 0.00 | 0.17 | 0.00 | 93 | 1011.4 |
| 20260831092015 | 70 | 180 | 1.7 | 4.3 | 0.00 | 0.17 | 0.00 | 93 | 1011.6 |
| 20260831091036 | 70 | 180 | 1.7 | 5.2 | 0.00 | 0.17 | 0.00 | 93 | 1011.7 |
| 20260831090016 | 70 | 158 | 2.6 | 4.3 | 0.00 | 0.17 | 0.00 | 93 | 1011.5 |
| 20260831085015 | 70 | 180 | 1.7 | 5.2 | 0.00 | 0.17 | 0.00 | 93 | 1011.6 |
| 20260831084015 | 70 | 158 | 2.6 | 4.3 | 0.00 | 0.17 | 0.00 | 93 | 1011.4 |
| 20260831083016 | 70 | 158 | 3.5 | 6.1 | 0.00 | 0.17 | 0.00 | 94 | 1011.5 |
| 20260831082015 | 69 | 158 | 2.6 | 5.2 | 0.00 | 0.17 | 0.00 | 94 | 1011.4 |
| 20260831081016 | 69 | 158 | 2.6 | 5.2 | 0.00 | 0.17 | 0.00 | 94 | 1011.5 |
| 20260831080015 | 69 | 158 | 1.7 | 3.5 | 0.00 | 0.17 | 0.00 | 93 | 1011.5 |
| 20260831075017 | 69 | 135 | 2.6 | 7.0 | 0.00 | 0.17 | 0.00 | 93 | 1011.5 |
| 20260831074017 | 70 | 135 | 2.6 | 4.3 | 0.00 | 0.17 | 0.00 | 93 | 1011.5 |
| 20260831073015 | 70 | 158 | 2.6 | 4.3 | 0.00 | 0.17 | 0.00 | 93 | 1011.6 |
| 20260831072036 | 70 | 135 | 2.6 | 5.2 | 0.00 | 0.17 | 0.00 | 93 | 1011.7 |
| 20260831071015 | 70 | 135 | 2.6 | 7.0 | 0.00 | 0.17 | 0.00 | 92 | 1011.7 |
| 20260831070015 | 70 | 158 | 2.6 | 5.2 | 0.00 | 0.17 | 0.00 | 92 | 1012.0 |
| 20260831065015 | 70 | 180 | 3.5 | 7.8 | 0.00 | 0.17 | 0.00 | 92 | 1012.0 |
| 20260831064015 | 70 | 158 | 3.5 | 6.1 | 0.00 | 0.17 | 0.00 | 92 | 1012.2 |
| 20260831063017 | 70 | 158 | 4.3 | 8.7 | 0.00 | 0.17 | 0.00 | 92 | 1012.3 |
| 20260831062015 | 70 | 135 | 4.3 | 10.4 | 0.00 | 0.17 | 0.00 | 92 | 1012.5 |
| 20260831061015 | 70 | 135 | 3.5 | 7.8 | 0.00 | 0.17 | 0.00 | 92 | 1012.7 |
| 20260831060015 | 70 | 158 | 4.3 | 9.6 | 0.00 | 0.17 | 0.00 | 92 | 1012.7 |
| 20260831055015 | 70 | 158 | 3.5 | 8.7 | 0.00 | 0.17 | 0.00 | 92 | 1012.7 |
| 20260831054017 | 70 | 135 | 4.3 | 9.6 | 0.00 | 0.17 | 0.00 | 92 | 1012.7 |
| 20260831053015 | 69 | 135 | 4.3 | 7.8 | 0.00 | 0.17 | 0.00 | 93 | 1012.8 |
| 20260831052015 | 69 | 135 | 3.5 | 5.2 | 0.00 | 0.17 | 0.00 | 93 | 1012.9 |
| 20260831051015 | 69 | 135 | 3.5 | 7.8 | 0.00 | 0.17 | 0.00 | 93 | 1013.0 |
| 20260831050015 | 69 | 135 | 3.5 | 7.0 | 0.00 | 0.17 | 0.17 | 93 | 1013.0 |
| 20260831045016 | 69 | 135 | 3.5 | 6.1 | 0.00 | 0.17 | 0.17 | 93 | 1013.1 |
| 20260831044016 | 69 | 135 | 5.2 | 8.7 | 0.00 | 0.17 | 0.17 | 94 | 1013.1 |
| 20260831043016 | 69 | 135 | 4.3 | 7.8 | 0.00 | 0.17 | 0.17 | 95 | 1013.2 |
| 20260831042016 | 69 | 135 | 5.2 | 7.8 | 0.00 | 0.17 | 0.17 | 96 | 1013.2 |
| 20260831041016 | 68 | 135 | 3.5 | 6.1 | 0.00 | 0.17 | 0.17 | 96 | 1013.3 |
| 20260831040016 | 68 | 113 | 3.5 | 7.0 | 0.00 | 0.17 | 0.17 | 96 | 1013.5 |
| 20260831035156 | 68 | 113 | 3.5 | 7.0 | 0.00 | 0.17 | 0.17 | 96 | 1013.7 |
| 20260831034016 | 68 | 113 | 2.6 | 5.2 | 0.00 | 0.17 | 0.17 | 96 | 1013.7 |
| 20260831033016 | 68 | 113 | 4.3 | 6.1 | 0.00 | 0.17 | 0.17 | 96 | 1013.8 |
| 20260831032016 | 68 | 113 | 2.6 | 6.1 | 0.00 | 0.17 | 0.17 | 96 | 1014.1 |
| 20260831031016 | 69 | 113 | 2.6 | 5.2 | 0.00 | 0.17 | 0.17 | 95 | 1014.1 |
| 20260831030016 | 69 | 90 | 0.9 | 2.6 | 0.00 | 0.17 | 0.17 | 95 | 1014.4 |
| 20260831025016 | 69 | 0.0 | 0.0 | 0.00 | 0.17 | 0.17 | 95 | 1014.4 | |
| 20260831024017 | 69 | 0.0 | 0.0 | 0.00 | 0.17 | 0.17 | 95 | 1014.3 | |
| 20260831023016 | 69 | 0.0 | 0.0 | 0.00 | 0.17 | 0.17 | 94 | 1014.4 | |
| 20260831022016 | 69 | 0.0 | 0.0 | 0.00 | 0.17 | 0.17 | 94 | 1014.4 | |
| 20260831021016 | 70 | 0.0 | 0.0 | 0.00 | 0.17 | 0.17 | 94 | 1014.2 | |
| 20260831020017 | 70 | 0.0 | 1.7 | 0.00 | 0.17 | 0.17 | 94 | 1014.0 | |
| 20260831015016 | 70 | 225 | 0.9 | 2.6 | 0.00 | 0.17 | 0.17 | 94 | 1013.8 |
| 20260831014016 | 70 | 270 | 1.7 | 3.5 | 0.00 | 0.17 | 0.17 | 94 | 1013.7 |
| 20260831013016 | 70 | 270 | 0.9 | 2.6 | 0.00 | 0.17 | 0.17 | 94 | 1013.4 |
| 20260831012016 | 70 | 270 | 1.7 | 5.2 | 0.00 | 0.17 | 0.17 | 94 | 1013.3 |
| 20260831011036 | 70 | 248 | 2.6 | 6.1 | 0.00 | 0.17 | 0.17 | 94 | 1013.2 |
| 20260831010016 | 70 | 248 | 1.7 | 4.3 | 0.16 | 0.17 | 0.17 | 94 | 1012.6 |
| 20260831005036 | 70 | 248 | 4.3 | 7.8 | 0.17 | 0.17 | 0.17 | 94 | 1012.4 |
| 20260831004015 | 71 | 225 | 4.3 | 8.7 | 0.17 | 0.17 | 0.17 | 94 | 1012.2 |
| 20260831003016 | 71 | 180 | 1.7 | 4.3 | 0.17 | 0.17 | 0.17 | 94 | 1011.8 |
| 20260831002036 | 71 | 45 | 0.9 | 3.5 | 0.17 | 0.17 | 0.17 | 93 | 1011.4 |
| 20260831001016 | 72 | 338 | 2.6 | 7.8 | 0.17 | 0.17 | 0.17 | 92 | 1011.8 |
| 20260831000016 | 73 | 135 | 5.2 | 9.6 | 0.01 | 0.01 | 0.00 | 90 | 1011.5 |
| 20260830235015 | 73 | 135 | 5.2 | 9.6 | 0.00 | 0.00 | 0.00 | 90 | 1011.5 |
| 20260830234016 | 73 | 135 | 1.7 | 6.1 | 0.00 | 0.00 | 0.00 | 89 | 1012.4 |
| 20260830233016 | 74 | 158 | 0.9 | 4.3 | 0.00 | 0.00 | 0.00 | 88 | 1012.4 |
| 20260830232015 | 74 | 135 | 2.6 | 5.2 | 0.00 | 0.00 | 0.00 | 87 | 1012.2 |